| time (UTC) | temp C | wind direction | speed KPH | gust KPH | rain 1hr cm | rain 24hr cm | rain mn cm | humidity % | barometer mb |
| 20260509184538 | 17 | 227 | 8.0 | 17.7 | 0.00 | 0.00 | 0.00 | 68 | 1005.7 |
| 20260509183036 | 17 | 289 | 8.0 | 24.1 | 0.00 | 0.00 | 0.00 | 67 | 1005.5 |
| 20260509181534 | 17 | 181 | 4.8 | 27.4 | 0.00 | 0.00 | 0.00 | 68 | 1005.6 |
| 20260509180030 | 16 | 178 | 9.7 | 16.1 | 0.00 | 0.00 | 0.00 | 70 | 1005.7 |
| 20260509174529 | 17 | 159 | 6.4 | 24.1 | 0.00 | 0.00 | 0.00 | 71 | 1006.0 |
| 20260509173025 | 16 | 247 | 4.8 | 22.5 | 0.00 | 0.00 | 0.00 | 72 | 1006.3 |
| 20260509171525 | 16 | 254 | 9.7 | 19.3 | 0.00 | 0.00 | 0.00 | 70 | 1006.4 |
| 20260509170122 | 15 | 215 | 3.2 | 24.1 | 0.00 | 0.00 | 0.00 | 73 | 1006.6 |
| 20260509164520 | 16 | 243 | 9.7 | 27.4 | 0.00 | 0.00 | 0.00 | 71 | 1006.6 |
| 20260509163020 | 15 | 216 | 6.4 | 16.1 | 0.00 | 0.00 | 0.00 | 73 | 1007.0 |
| 20260509161516 | 15 | 263 | 8.0 | 16.1 | 0.00 | 0.00 | 0.00 | 74 | 1007.1 |
| 20260509160014 | 15 | 212 | 6.4 | 22.5 | 0.00 | 0.00 | 0.00 | 74 | 1007.1 |
| 20260509154510 | 15 | 217 | 4.8 | 16.1 | 0.00 | 0.00 | 0.00 | 75 | 1007.3 |
| 20260509153011 | 14 | 160 | 4.8 | 11.3 | 0.00 | 0.00 | 0.00 | 77 | 1007.3 |
| 20260509151505 | 14 | 231 | 4.8 | 11.3 | 0.00 | 0.00 | 0.00 | 78 | 1007.5 |
| 20260509150002 | 13 | 238 | 4.8 | 14.5 | 0.00 | 0.00 | 0.00 | 78 | 1007.5 |
| 20260509144507 | 13 | 213 | 1.6 | 12.9 | 0.00 | 0.00 | 0.00 | 79 | 1007.5 |
| 20260509143102 | 13 | 233 | 4.8 | 12.9 | 0.00 | 0.00 | 0.00 | 79 | 1007.6 |
| 20260509141558 | 13 | 185 | 6.4 | 17.7 | 0.00 | 0.00 | 0.00 | 81 | 1007.7 |
| 20260509140154 | 13 | 234 | 4.8 | 16.1 | 0.00 | 0.00 | 0.00 | 83 | 1007.8 |
| 20260509134554 | 13 | 229 | 3.2 | 11.3 | 0.00 | 0.00 | 0.00 | 83 | 1007.9 |
| 20260509133058 | 13 | 178 | 3.2 | 14.5 | 0.00 | 0.00 | 0.00 | 84 | 1008.0 |
| 20260509131556 | 12 | 221 | 1.6 | 11.3 | 0.00 | 0.00 | 0.00 | 85 | 1007.9 |
| 20260509130050 | 12 | 127 | 8.0 | 14.5 | 0.00 | 0.00 | 0.00 | 86 | 1007.9 |
| 20260509124543 | 11 | 150 | 3.2 | 11.3 | 0.00 | 0.00 | 0.00 | 88 | 1007.9 |
| 20260509123038 | 10 | 169 | 3.2 | 11.3 | 0.00 | 0.00 | 0.00 | 89 | 1008.1 |
| 20260509121548 | 10 | 167 | 3.2 | 11.3 | 0.00 | 0.00 | 0.00 | 90 | 1008.3 |
| 20260509120034 | 8 | 166 | 3.2 | 8.0 | 0.00 | 0.00 | 0.00 | 92 | 1008.4 |
| 20260509114526 | 8 | 170 | 1.6 | 8.0 | 0.00 | 0.20 | 0.00 | 94 | 1008.4 |
| 20260509113120 | 7 | 154 | 1.6 | 8.0 | 0.00 | 0.20 | 0.00 | 95 | 1008.2 |
| 20260509111515 | 6 | 161 | 1.6 | 4.8 | 0.00 | 0.20 | 0.00 | 95 | 1008.4 |
| 20260509110011 | 5 | 203 | 0.0 | 1.6 | 0.00 | 0.30 | 0.00 | 94 | 1008.4 |
| 20260509104508 | 4 | 203 | 0.0 | 0.0 | 0.00 | 0.30 | 0.00 | 94 | 1008.6 |
| 20260509103004 | 4 | 203 | 0.0 | 0.0 | 0.00 | 0.30 | 0.00 | 93 | 1008.6 |
| 20260509101502 | 4 | 203 | 0.0 | 0.0 | 0.00 | 0.30 | 0.00 | 93 | 1008.4 |
| 20260509100103 | 4 | 203 | 0.0 | 0.0 | 0.00 | 0.30 | 0.00 | 93 | 1008.4 |
| 20260509094559 | 4 | 203 | 0.0 | 0.0 | 0.00 | 0.30 | 0.00 | 92 | 1008.5 |
| 20260509093059 | 3 | 203 | 0.0 | 0.0 | 0.00 | 0.30 | 0.00 | 92 | 1008.5 |
| 20260509091558 | 3 | 203 | 0.0 | 0.0 | 0.00 | 0.30 | 0.00 | 92 | 1008.4 |
| 20260509090106 | 3 | 203 | 0.0 | 0.0 | 0.00 | 0.30 | 0.00 | 92 | 1008.5 |
| 20260509084600 | 3 | 203 | 0.0 | 0.0 | 0.00 | 0.30 | 0.00 | 92 | 1008.6 |
| 20260509083059 | 3 | 203 | 0.0 | 1.6 | 0.00 | 0.30 | 0.00 | 93 | 1008.7 |
| 20260509081554 | 3 | 203 | 0.0 | 3.2 | 0.00 | 0.30 | 0.00 | 93 | 1008.7 |
| 20260509080059 | 3 | 205 | 0.0 | 0.0 | 0.00 | 0.30 | 0.00 | 93 | 1008.8 |
| 20260509074551 | 3 | 205 | 0.0 | 0.0 | 0.00 | 0.30 | 0.00 | 92 | 1008.9 |
| 20260509073050 | 2 | 205 | 0.0 | 0.0 | 0.00 | 0.30 | 0.00 | 92 | 1009.0 |
| 20260509071549 | 2 | 205 | 0.0 | 0.0 | 0.00 | 0.30 | 0.00 | 92 | 1009.2 |
| 20260509070047 | 2 | 205 | 0.0 | 0.0 | 0.00 | 0.30 | 0.00 | 91 | 1009.1 |
| 20260509064546 | 3 | 205 | 0.0 | 0.0 | 0.00 | 0.30 | 0.00 | 91 | 1009.3 |
| 20260509063043 | 3 | 205 | 0.0 | 0.0 | 0.00 | 0.30 | 0.00 | 91 | 1009.3 |
| 20260509061545 | 3 | 205 | 0.0 | 0.0 | 0.00 | 0.30 | 0.00 | 91 | 1009.7 |
| 20260509060042 | 3 | 205 | 0.0 | 0.0 | 0.00 | 0.30 | 0.00 | 90 | 1010.0 |
| 20260509054539 | 3 | 205 | 0.0 | 0.0 | 0.00 | 0.30 | 0.00 | 90 | 1010.2 |
| 20260509053053 | 3 | 205 | 0.0 | 0.0 | 0.00 | 0.30 | 0.00 | 90 | 1010.2 |
| 20260509051533 | 3 | 205 | 0.0 | 0.0 | 0.00 | 0.30 | 0.00 | 90 | 1010.2 |
| 20260509050032 | 3 | 205 | 0.0 | 0.0 | 0.00 | 0.30 | 0.00 | 90 | 1010.5 |
| 20260509044529 | 3 | 205 | 0.0 | 0.0 | 0.00 | 0.30 | 0.00 | 90 | 1010.7 |
| 20260509043027 | 3 | 205 | 0.0 | 0.0 | 0.00 | 0.30 | 0.00 | 89 | 1010.9 |
| 20260509041535 | 3 | 205 | 0.0 | 0.0 | 0.00 | 0.30 | 0.00 | 88 | 1011.0 |
| 20260509040022 | 4 | 205 | 0.0 | 0.0 | 0.00 | 0.33 | 0.30 | 86 | 1011.0 |
| 20260509034522 | 4 | 205 | 0.0 | 0.0 | 0.00 | 0.33 | 0.30 | 85 | 1011.1 |
| 20260509033021 | 5 | 205 | 0.0 | 0.0 | 0.00 | 0.33 | 0.30 | 83 | 1011.2 |
| 20260509031521 | 5 | 205 | 0.0 | 0.0 | 0.00 | 0.33 | 0.30 | 80 | 1011.4 |
| 20260509030021 | 5 | 205 | 0.0 | 3.2 | 0.00 | 0.36 | 0.30 | 77 | 1011.4 |
| 20260509024520 | 6 | 205 | 0.0 | 0.0 | 0.00 | 0.36 | 0.30 | 73 | 1011.4 |
| 20260509023019 | 6 | 205 | 0.0 | 4.8 | 0.00 | 0.36 | 0.30 | 72 | 1011.5 |
| 20260509021520 | 5 | 228 | 1.6 | 6.4 | 0.00 | 0.36 | 0.30 | 76 | 1011.4 |
| 20260509020022 | 6 | 225 | 0.0 | 0.0 | 0.00 | 0.48 | 0.30 | 73 | 1011.4 |
| 20260509014519 | 6 | 225 | 0.0 | 0.0 | 0.00 | 0.48 | 0.30 | 71 | 1011.2 |
| 20260509013018 | 7 | 225 | 0.0 | 0.0 | 0.00 | 0.48 | 0.30 | 67 | 1011.1 |
| 20260509011524 | 7 | 225 | 0.0 | 0.0 | 0.00 | 0.48 | 0.30 | 67 | 1011.1 |
| 20260509010034 | 8 | 225 | 0.0 | 3.2 | 0.00 | 0.66 | 0.30 | 62 | 1011.1 |
| 20260509004525 | 8 | 225 | 0.0 | 0.0 | 0.00 | 0.66 | 0.30 | 57 | 1011.1 |
| 20260509003017 | 10 | 225 | 0.0 | 0.0 | 0.00 | 0.66 | 0.30 | 54 | 1011.0 |
| 20260509001516 | 11 | 234 | 0.0 | 3.2 | 0.00 | 0.66 | 0.30 | 49 | 1010.8 |
| 20260509000017 | 11 | 202 | 0.0 | 6.4 | 0.00 | 0.97 | 0.30 | 45 | 1010.7 |
| 20260508234522 | 11 | 202 | 1.6 | 8.0 | 0.00 | 0.97 | 0.30 | 44 | 1010.8 |
| 20260508233015 | 12 | 208 | 1.6 | 9.7 | 0.00 | 0.97 | 0.30 | 44 | 1010.8 |
| 20260508231513 | 12 | 194 | 3.2 | 12.9 | 0.00 | 0.97 | 0.30 | 45 | 1010.7 |
| 20260508230023 | 12 | 207 | 0.0 | 11.3 | 0.00 | 0.97 | 0.30 | 45 | 1010.7 |
| 20260508224515 | 12 | 215 | 3.2 | 12.9 | 0.00 | 0.97 | 0.30 | 46 | 1010.8 |
| 20260508223010 | 12 | 205 | 1.6 | 12.9 | 0.00 | 0.97 | 0.30 | 46 | 1010.8 |
| 20260508221525 | 12 | 245 | 1.6 | 11.3 | 0.00 | 0.97 | 0.30 | 46 | 1010.8 |
| 20260508220008 | 13 | 225 | 4.8 | 16.1 | 0.00 | 0.97 | 0.30 | 46 | 1010.9 |
| 20260508214508 | 12 | 243 | 1.6 | 6.4 | 0.00 | 0.97 | 0.30 | 47 | 1010.8 |
| 20260508213015 | 13 | 232 | 3.2 | 9.7 | 0.00 | 0.97 | 0.30 | 44 | 1010.8 |
| 20260508211508 | 13 | 248 | 0.0 | 6.4 | 0.00 | 0.97 | 0.30 | 45 | 1010.8 |
| 20260508210005 | 13 | 285 | 1.6 | 19.3 | 0.00 | 0.97 | 0.30 | 44 | 1010.8 |
| 20260508204510 | 13 | 277 | 8.0 | 16.1 | 0.00 | 0.97 | 0.30 | 42 | 1010.9 |
| 20260508203006 | 13 | 305 | 1.6 | 14.5 | 0.00 | 0.97 | 0.30 | 46 | 1011.0 |
| 20260508201500 | 13 | 248 | 1.6 | 12.9 | 0.00 | 0.97 | 0.30 | 51 | 1011.2 |
| 20260508194557 | 12 | 25 | 1.6 | 6.4 | 0.00 | 0.97 | 0.30 | 57 | 1011.5 |
| 20260508193102 | 12 | 193 | 0.0 | 9.7 | 0.00 | 0.97 | 0.30 | 59 | 1011.8 |
| 20260508191557 | 12 | 186 | 4.8 | 12.9 | 0.00 | 0.97 | 0.30 | 57 | 1012.1 |
| 20260508190053 | 12 | 85 | 1.6 | 9.7 | 0.00 | 0.97 | 0.30 | 55 | 1012.2 |